Theta_e
354 354 353 352 352 351 350 350 351 350 350 351 352 351 350 351 351 351 349 342 338 339 340 341 343 344 343 342 340 339 339 340 342 345 349 351 352 353 353 353 353 353 353 353 354 354 352 351 350 352 352 348 347 345 342 344 344 344 346 345 345 346 347
354 354 354 353 352 351 351 351 351 351 351 351 352 351 351 352 351 350 348 343 340 341 340 340 342 343 343 343 342 340 338 339 341 342 347 350 350 350 351 353 353 352 352 353 354 353 351 349 349 350 350 349 350 346 341 343 343 344 347 344 344 347 345
353 354 354 354 353 352 351 351 350 350 350 351 351 352 352 351 349 348 346 344 343 342 341 341 341 342 342 343 343 342 339 340 341 341 345 350 350 350 351 351 351 352 352 353 353 352 352 351 349 348 348 350 352 348 344 345 345 344 345 344 346 348 346
352 353 353 354 354 352 351 351 351 350 351 351 351 351 351 348 347 346 346 346 344 343 342 341 341 343 344 344 344 343 341 340 342 344 347 350 350 351 352 351 350 351 352 352 352 352 352 353 352 349 347 346 348 348 345 345 346 344 344 344 345 347 345
352 352 353 354 354 353 351 351 351 351 351 351 350 351 350 348 346 347 346 346 345 344 343 342 344 347 346 346 346 346 343 339 340 343 347 350 351 351 351 351 351 351 351 351 352 351 350 351 353 352 349 346 347 349 347 345 346 345 344 344 345 348 349
353 353 353 354 355 353 352 351 351 352 351 350 348 348 349 347 347 348 347 346 346 345 344 343 346 348 346 346 348 349 346 341 338 338 341 346 349 350 351 351 351 351 351 351 352 352 350 350 353 353 352 352 352 354 353 350 351 351 348 344 345 349 352
354 354 354 355 355 354 352 351 351 352 350 349 347 346 347 346 346 348 347 346 344 344 344 343 345 346 344 345 347 348 346 343 342 339 339 343 345 346 349 351 351 351 351 352 352 352 352 352 352 352 352 353 354 355 355 351 349 351 350 347 344 344 346
353 354 353 354 354 354 353 351 350 351 350 349 348 347 345 344 344 345 345 344 343 343 343 343 343 342 342 343 344 344 342 342 344 342 339 343 345 345 347 349 350 350 351 352 350 350 352 352 353 352 352 353 353 352 353 349 345 349 353 351 348 346 349
353 351 349 350 350 350 349 349 348 348 349 348 348 347 343 342 343 343 343 343 342 342 342 342 342 342 342 343 343 342 341 341 344 342 340 344 346 346 346 346 348 349 349 349 349 349 351 352 353 354 351 352 351 347 348 348 347 350 352 349 346 345 350
353 351 348 348 348 347 346 347 347 346 346 346 347 346 343 342 342 341 341 342 342 342 343 343 343 342 342 343 343 343 343 343 343 343 343 344 345 346 346 345 346 347 347 347 346 348 351 352 353 353 349 349 349 344 344 347 350 353 352 349 346 345 347
352 352 350 348 347 347 347 347 347 346 345 344 344 343 342 344 344 342 342 341 341 342 342 343 344 343 343 344 344 344 344 344 344 344 344 344 343 344 345 346 345 346 347 347 345 346 350 352 352 350 347 349 352 349 345 346 349 352 354 354 352 349 349
351 352 351 348 348 348 348 348 347 347 347 346 344 343 343 344 344 344 343 342 342 342 342 343 344 343 342 342 343 344 344 344 346 345 345 345 344 343 343 345 346 346 346 346 346 345 348 351 352 350 348 348 351 353 351 348 349 350 351 355 356 353 352
352 352 352 350 350 350 349 348 348 348 347 347 347 346 346 345 344 345 345 343 343 343 343 344 344 344 343 342 342 343 343 343 345 346 346 345 346 344 343 344 346 347 348 348 348 346 346 348 350 351 350 347 347 351 352 349 348 348 347 350 355 355 354
351 352 352 351 351 351 350 349 348 348 347 347 347 347 347 346 345 345 345 345 346 345 345 345 345 344 344 342 342 342 342 343 344 345 345 345 347 347 346 345 346 347 348 348 348 349 348 347 348 349 350 349 347 350 351 349 349 349 346 347 352 354 354
350 351 350 350 350 350 350 348 348 349 348 348 348 348 348 347 347 346 347 347 347 347 347 346 345 344 343 342 342 342 342 343 343 344 345 345 346 347 347 347 346 346 345 343 344 348 349 348 348 349 350 350 350 350 351 352 352 352 350 349 351 353 354
349 349 349 349 349 348 348 348 348 349 349 350 350 350 349 349 348 348 348 347 347 347 347 347 346 345 343 343 343 343 343 343 343 344 344 344 345 346 346 346 346 347 346 342 341 344 346 346 347 350 350 351 350 349 350 351 352 352 351 349 350 352 353
348 347 346 347 348 347 346 346 346 347 348 349 349 349 349 349 350 349 348 348 348 348 348 348 348 347 345 344 344 344 344 343 343 344 344 344 345 346 346 346 346 347 347 345 341 340 342 342 343 347 350 351 350 349 349 350 351 351 347 345 346 347 348
347 345 345 345 346 346 345 345 345 346 346 346 347 348 348 349 349 349 349 349 349 349 349 349 349 348 347 347 346 346 345 345 345 345 345 345 346 346 346 346 346 347 347 346 342 340 340 342 344 347 350 352 352 351 351 351 350 349 347 346 347 346 345
345 345 345 345 345 345 344 344 344 344 344 344 346 347 348 348 348 349 349 349 349 350 350 349 350 350 349 349 349 349 349 348 348 348 348 348 347 347 347 346 346 347 348 345 342 343 343 346 349 351 351 353 355 353 354 352 349 347 347 347 348 348 347
345 345 344 344 344 343 342 343 343 343 343 344 344 345 346 347 347 348 348 348 348 349 349 349 349 350 350 350 350 350 350 350 350 350 350 349 349 349 349 348 346 347 348 346 345 347 348 348 351 353 352 354 355 354 354 352 348 347 349 349 349 349 348
344 344 342 342 342 342 342 343 344 344 344 344 344 345 346 346 346 347 347 347 347 347 347 348 349 349 350 350 350 350 350 349 350 350 350 349 349 350 351 350 348 348 348 348 349 350 350 350 351 352 352 353 353 353 354 352 349 348 349 349 350 350 350
342 341 340 340 341 341 341 341 342 344 343 343 343 344 344 345 345 345 345 346 346 347 346 347 348 348 348 348 348 348 348 348 348 348 348 348 348 349 350 350 350 350 350 351 351 351 350 351 352 351 352 353 353 353 353 352 350 349 349 349 350 351 351
339 339 338 339 340 340 339 338 339 341 340 340 341 341 342 342 342 342 343 343 344 345 344 344 345 345 345 345 345 345 345 345 346 346 346 347 347 348 348 348 348 349 350 352 352 351 350 351 351 351 351 351 352 353 353 352 351 351 350 350 350 351 351
335 336 336 336 337 337 336 336 338 339 338 339 338 338 339 339 339 340 340 340 341 341 340 340 340 340 341 340 340 341 341 341 342 342 342 344 346 346 346 347 347 348 349 350 350 350 350 350 350 350 350 350 351 351 351 351 351 350 350 350 350 351 350
331 332 333 334 335 334 333 335 336 336 335 334 333 334 334 334 333 334 335 335 335 336 338 338 337 337 338 337 336 337 338 338 338 337 337 339 341 341 341 342 343 345 347 347 346 346 347 347 347 348 348 348 349 350 350 349 350 350 350 350 350 350 350
329 330 332 333 333 332 331 331 331 329 327 325 324 326 326 323 321 322 324 324 323 325 328 330 330 330 330 329 328 329 329 330 331 330 331 332 333 333 334 334 335 338 341 342 342 343 344 345 345 345 346 346 346 347 347 347 348 349 349 349 349 350 350
327 329 331 332 331 329 329 328 327 326 323 321 322 323 322 319 317 316 317 317 315 315 316 318 320 320 319 317 317 318 319 321 321 320 321 322 323 323 325 326 328 329 331 333 336 336 337 340 341 340 340 341 341 342 343 344 345 346 346 346 346 346 347
326 326 328 331 330 328 328 327 325 324 323 323 324 322 320 319 317 315 315 314 313 312 311 311 313 314 314 313 312 313 315 317 317 315 314 315 316 317 319 321 322 323 324 327 329 329 327 330 333 333 332 334 335 336 336 337 339 340 341 341 342 342 342
326 324 326 329 330 328 328 327 326 325 325 324 323 321 319 318 317 315 314 312 312 311 310 309 308 310 311 311 311 311 312 314 315 314 312 313 315 316 318 319 319 321 323 325 327 327 326 327 330 330 329 330 330 330 329 331 333 335 337 339 340 339 337
327 326 326 327 327 326 326 326 325 325 324 323 322 321 320 317 315 313 312 311 311 311 309 308 307 307 307 308 308 309 309 309 311 311 311 312 313 314 317 318 318 319 322 324 325 327 327 327 329 330 330 330 330 330 330 332 333 334 335 336 336 335 334
327 327 327 326 325 325 324 324 323 322 322 321 319 318 316 313 312 311 310 310 310 310 309 307 307 306 306 306 306 307 307 307 308 309 309 310 311 311 313 315 316 315 318 322 323 324 325 327 328 329 330 330 331 331 332 333 333 333 334 334 335 335 335
326 326 325 324 323 322 322 322 321 318 317 316 314 313 311 310 310 310 309 308 308 308 307 307 307 307 307 306 306 305 306 306 306 306 307 307 308 308 309 311 312 312 315 319 321 321 323 326 327 328 329 329 330 331 332 333 332 332 333 335 336 335 335
324 324 323 322 321 321 321 320 318 315 314 313 312 311 310 309 309 309 309 310 310 308 307 307 307 307 307 307 307 307 306 306 305 306 307 306 306 308 308 306 308 311 313 315 318 319 320 323 324 326 326 327 327 328 328 329 328 329 332 334 334 334 334
321 322 322 322 321 321 320 317 315 314 314 312 312 311 310 309 308 307 308 310 310 309 307 306 308 309 309 311 312 311 310 309 306 305 306 306 305 307 308 307 308 310 309 310 312 314 315 317 318 318 319 321 322 321 322 324 325 324 326 327 327 327 327
321 321 321 321 321 319 317 316 315 315 313 312 312 311 309 308 307 307 308 308 307 307 306 306 307 308 309 312 314 312 311 311 310 307 306 307 307 306 305 305 306 307 306 305 306 307 308 309 309 309 310 313 313 312 314 318 318 314 313 314 314 314 314
322 321 320 320 320 318 316 315 316 315 315 314 312 310 308 307 307 308 310 309 307 306 307 306 307 307 309 311 312 310 309 310 310 306 305 307 308 307 306 304 304 304 305 305 304 304 305 305 305 305 306 307 307 307 307 309 309 306 306 307 306 306 307
321 321 320 319 319 318 316 316 316 316 317 316 313 309 308 308 308 308 309 308 307 307 307 305 306 309 312 312 309 306 305 307 306 304 304 305 305 304 305 306 305 303 303 304 304 303 303 304 304 304 304 304 305 305 305 305 305 305 305 305 305 305 305
321 321 320 319 318 318 316 316 317 318 318 317 313 309 309 309 309 308 308 308 307 307 307 306 306 308 311 312 308 304 305 306 305 304 304 304 303 304 304 305 307 307 304 303 304 304 304 304 304 304 304 304 304 304 304 304 305 305 305 305 305 305 305
Wind_Speed
22 22 21 22 23 23 23 22 22 21 20 19 19 19 18 18 18 18 18 18 19 19 19 18 18 16 15 15 15 15 15 14 14 14 13 12 10 9 8 7 6 6 6 5 4 5 5 4 4 4 4 3 3 4 4 4 5 4 4 5 5 5 4
23 22 21 21 22 23 23 23 22 21 20 20 20 19 18 19 20 21 21 20 18 18 18 18 18 17 16 15 15 16 16 15 15 15 14 13 13 12 9 8 7 7 7 6 6 6 5 5 4 4 3 3 3 4 4 4 5 5 4 5 5 4 4
26 22 21 21 21 22 24 23 22 22 21 20 20 19 19 20 21 22 22 21 20 19 18 17 18 18 17 16 15 16 16 16 15 15 14 12 12 11 9 9 9 7 7 7 7 6 5 5 5 4 3 3 4 4 3 4 4 4 5 5 4 4 5
30 25 21 20 19 21 23 22 22 21 20 20 19 18 19 20 21 22 22 21 21 20 19 18 18 17 17 16 15 15 16 16 15 14 13 12 12 11 10 10 9 8 8 7 7 7 6 6 5 5 4 4 4 4 4 4 5 5 5 4 4 5 5
26 24 21 20 20 20 21 21 21 21 20 20 20 19 19 21 21 23 23 22 22 21 20 18 17 17 18 17 16 15 16 16 16 15 14 13 12 12 11 10 9 9 9 7 7 8 8 7 5 5 5 4 4 4 4 4 4 5 4 4 4 4 3
23 22 21 20 20 21 21 21 20 19 20 22 22 20 20 21 22 22 23 23 22 21 21 19 18 18 18 17 16 16 16 16 15 15 14 14 14 13 11 10 9 9 9 8 8 8 8 7 7 7 6 5 5 5 5 5 4 5 5 4 4 3 4
23 23 22 20 18 18 19 20 18 18 21 23 22 21 21 23 23 22 22 23 22 21 21 20 19 19 18 17 16 16 16 16 14 14 14 14 14 14 12 11 10 10 9 9 9 8 8 8 8 8 7 7 7 7 6 7 6 6 6 5 5 5 5
23 24 23 22 20 17 16 18 17 15 18 21 20 21 24 24 23 22 23 23 21 21 21 21 20 20 18 17 17 16 15 15 14 14 14 13 14 14 13 12 11 11 10 9 9 9 9 9 8 9 9 8 8 9 8 8 7 6 6 6 6 5 5
22 24 24 23 22 18 17 19 19 16 15 15 16 19 22 22 21 21 22 22 21 20 20 21 21 20 19 18 17 16 15 15 15 15 14 13 13 13 13 13 12 12 12 11 10 10 10 10 9 10 11 10 10 11 10 9 8 7 7 7 7 6 5
19 22 24 23 21 19 19 21 22 21 17 14 15 17 18 18 19 19 20 20 20 19 20 21 21 21 20 19 18 17 16 15 15 15 14 14 14 14 13 13 12 12 12 12 11 10 11 11 10 11 12 10 10 11 11 10 9 8 8 7 7 7 6
17 18 21 22 21 21 23 23 23 24 23 20 18 17 14 13 14 16 18 19 18 18 19 20 21 21 21 20 20 19 18 16 15 15 15 15 15 15 14 13 13 13 13 12 12 12 12 12 12 13 13 11 10 10 11 11 11 10 9 8 8 8 7
16 15 16 18 18 19 21 22 21 22 22 22 22 20 18 16 15 16 17 17 17 17 18 18 19 20 21 21 20 19 18 17 16 16 16 16 16 16 16 15 14 13 13 13 13 13 13 12 12 12 13 12 11 10 11 12 12 13 12 10 9 9 9
14 14 15 16 15 15 16 17 19 19 20 21 22 21 22 23 22 20 18 18 19 20 20 19 18 19 21 21 21 21 20 19 18 17 18 19 18 18 18 17 16 14 13 13 13 14 14 14 13 13 13 13 13 12 12 13 13 14 15 13 11 10 11
12 13 14 14 13 13 14 15 17 19 20 21 21 21 22 23 23 23 22 22 22 22 23 22 20 21 22 22 23 24 24 23 22 21 21 21 20 19 19 19 18 17 16 15 14 14 14 14 14 14 13 13 13 13 12 13 13 14 15 15 13 12 12
12 13 13 14 14 13 13 15 17 17 17 18 19 20 21 22 23 23 23 24 24 23 22 23 23 24 25 26 26 27 26 25 24 24 23 22 21 21 20 20 20 20 19 18 16 14 14 14 14 14 13 13 13 13 12 12 12 13 14 14 13 12 11
12 13 13 14 15 14 11 13 15 14 14 15 15 15 17 19 20 21 21 21 21 20 19 20 20 22 24 26 26 27 27 26 26 26 25 24 24 23 23 23 22 21 21 20 18 16 16 16 16 14 13 13 13 13 13 12 12 14 16 15 14 13 12
12 12 11 11 13 11 9 8 9 9 10 10 9 12 16 17 17 18 19 20 20 19 19 19 19 21 23 24 25 26 26 27 27 28 27 26 26 25 25 25 24 23 23 22 21 19 18 18 17 16 14 13 13 13 12 13 15 18 17 15 15 16 16
12 12 10 9 9 10 9 7 6 6 5 6 7 10 12 12 12 14 17 19 19 19 19 20 20 21 21 22 22 22 24 25 26 27 26 26 27 26 26 25 25 24 23 23 22 20 20 18 17 18 16 14 14 14 12 15 19 19 16 14 15 16 17
13 13 12 11 10 9 9 8 7 6 6 6 8 9 9 9 10 10 13 15 16 17 18 19 20 20 19 19 19 19 19 21 22 22 23 24 24 24 25 25 25 25 23 23 23 21 21 19 18 18 17 14 14 13 12 17 21 18 16 16 16 15 16
11 13 12 11 9 7 7 7 7 7 7 6 5 7 8 8 8 9 11 13 14 16 17 17 18 18 19 19 19 18 18 18 18 17 19 21 22 22 22 23 25 25 22 22 22 21 21 20 18 18 16 15 15 13 14 19 21 17 17 17 16 16 16
10 11 11 10 9 8 7 7 7 6 5 5 6 7 7 7 8 9 11 12 13 14 15 16 18 18 18 18 18 18 18 17 17 18 20 22 21 20 20 20 23 24 23 22 20 19 19 18 18 19 17 15 14 13 16 21 21 18 17 17 15 16 15
9 11 10 10 9 9 8 7 6 5 4 5 6 6 7 7 9 12 13 14 13 13 14 15 16 16 17 16 16 15 14 14 15 16 18 18 18 19 19 20 22 22 22 20 19 18 17 16 16 17 16 13 12 12 16 20 19 18 17 16 16 15 14
9 10 10 10 9 9 9 8 6 4 5 7 8 7 6 5 7 10 13 14 13 14 14 14 13 13 13 13 11 9 8 8 9 10 11 13 16 18 20 22 22 21 19 18 18 19 18 15 15 15 15 13 12 13 17 20 18 16 16 16 16 15 14
10 10 11 10 10 10 9 8 6 4 4 8 11 11 10 8 6 8 11 12 12 12 12 14 14 13 12 12 11 10 7 6 6 6 7 11 14 15 17 20 22 21 20 18 17 16 14 12 13 13 13 13 13 15 18 19 17 15 14 14 15 14 15
11 11 11 10 10 11 11 10 9 8 9 11 13 13 11 9 8 8 10 11 10 9 9 10 12 11 10 10 11 11 10 8 7 7 8 9 9 9 9 11 14 16 17 16 14 13 11 9 8 9 10 12 14 16 17 16 15 15 14 14 14 14 14
13 11 11 10 10 12 13 12 12 12 13 14 14 12 11 9 8 8 10 11 10 9 8 9 10 10 9 10 10 9 8 7 6 7 7 7 6 4 4 4 5 8 11 10 8 8 10 9 8 9 10 10 12 14 14 13 12 13 14 14 15 14 14
12 13 12 12 13 13 12 12 12 12 13 14 13 11 9 7 7 8 10 11 10 10 10 10 11 11 11 11 10 9 8 6 6 7 7 6 5 5 4 5 5 5 7 7 5 5 8 10 9 7 7 6 6 7 10 11 11 12 12 12 12 13 14
12 12 13 13 14 14 11 10 10 11 11 12 11 8 6 5 5 7 8 7 8 9 9 9 10 10 9 8 6 7 8 6 5 7 6 5 5 6 5 5 5 4 5 5 4 5 7 8 8 5 4 4 3 4 6 7 8 9 9 9 8 8 9
11 11 12 13 14 14 12 11 10 10 10 9 7 6 5 4 4 6 6 7 8 9 8 8 8 8 6 4 3 3 4 4 4 3 3 3 2 3 4 5 5 4 5 6 6 6 7 7 7 5 4 3 2 3 4 4 5 5 5 5 5 5 5
11 11 12 12 13 13 12 10 10 9 8 7 5 4 3 3 4 5 5 6 8 8 8 8 7 7 6 4 2 1 2 3 3 1 1 1 1 1 1 2 3 4 5 5 6 6 6 6 7 6 5 4 3 4 4 3 4 4 5 5 5 5 5
11 12 13 13 13 13 12 10 8 6 4 3 2 1 1 3 4 4 4 5 7 7 7 7 7 6 5 4 3 3 2 2 2 2 2 2 3 3 2 2 2 1 2 4 5 5 5 5 5 5 4 5 5 6 5 5 6 7 8 8 8 8 9
13 13 14 13 12 11 11 9 7 4 3 2 1 0 1 3 4 3 4 5 5 6 6 6 5 5 4 4 3 3 2 1 1 0 1 1 2 3 4 4 4 4 3 4 4 5 5 5 5 4 4 6 7 7 7 7 8 9 11 12 12 12 12
15 15 14 13 13 11 11 9 6 3 1 1 1 1 2 3 3 4 4 5 5 5 5 5 4 4 3 3 3 2 1 1 1 1 1 1 1 2 3 4 4 4 4 4 4 5 6 6 6 6 7 8 9 10 9 8 10 13 14 14 14 15 15
17 16 15 15 15 13 11 9 5 2 1 1 1 2 2 2 2 3 3 4 3 3 4 4 3 3 3 4 3 2 2 2 2 1 2 3 3 4 5 5 4 4 6 7 6 6 6 7 8 10 11 10 11 11 8 6 12 17 17 16 16 17 17
19 18 17 16 15 13 10 8 5 2 0 1 2 2 2 2 3 3 3 2 2 3 4 4 3 3 3 2 1 1 1 2 2 2 2 3 4 5 7 7 7 8 9 10 9 8 8 9 10 11 11 10 12 12 10 10 15 18 17 16 17 17 17
19 20 19 18 16 14 12 10 7 3 1 1 2 3 3 3 3 3 2 3 4 5 5 5 4 4 3 1 0 2 2 1 3 4 3 2 3 5 6 7 7 9 10 10 9 10 10 11 11 11 11 11 13 13 13 15 17 16 15 16 17 16 16
20 21 21 20 19 17 15 12 9 6 3 1 2 3 2 2 2 2 2 4 6 6 6 5 4 3 3 2 3 4 3 3 4 5 4 4 4 4 4 5 6 8 9 9 9 10 10 11 11 11 11 12 13 14 15 16 16 15 15 16 16 16 16
20 19 21 22 21 19 17 13 10 8 7 4 3 2 1 1 3 3 3 4 5 4 5 5 3 2 1 2 5 6 4 3 4 4 3 4 4 3 4 4 4 5 7 8 9 9 10 10 10 10 10 11 12 14 15 15 14 15 15 15 15 15 15
Wind_Direction
194 193 191 191 192 194 195 196 198 199 199 200 201 202 202 201 200 203 205 204 204 205 204 203 201 200 200 202 204 204 203 202 203 203 202 200 199 200 199 197 198 194 189 190 194 197 196 189 183 191 217 238 246 247 240 230 228 220 220 217 212 216 208
193 193 191 191 192 193 195 197 200 201 201 203 205 206 204 204 209 215 216 211 206 207 208 206 205 205 204 206 207 206 205 204 206 207 205 207 206 202 201 203 206 203 195 195 200 203 207 209 200 205 220 224 240 256 246 233 231 224 230 231 228 238 227
190 192 191 191 192 192 193 197 201 202 203 205 207 207 207 213 220 224 223 218 213 212 212 210 209 209 210 212 212 211 209 208 210 211 210 213 216 212 216 216 209 205 204 203 207 208 212 221 221 221 221 205 218 244 246 238 240 233 235 240 240 251 246
188 189 191 193 194 193 194 196 201 203 205 208 207 207 215 226 231 230 227 223 220 217 216 215 214 214 215 216 216 216 214 212 212 214 214 217 220 218 221 223 213 207 208 208 211 212 210 217 224 228 231 217 213 229 236 233 239 241 242 244 241 249 257
185 186 189 194 195 194 193 195 201 204 206 212 215 213 221 232 234 234 233 229 226 224 222 220 216 216 219 218 218 218 219 218 216 216 216 216 218 217 217 219 216 212 213 212 214 220 219 214 217 227 234 232 222 224 233 229 234 248 251 249 246 251 266
177 179 185 192 194 194 194 197 203 206 210 220 227 225 226 233 235 234 235 233 230 228 226 223 217 217 221 219 216 218 220 222 221 220 220 218 218 217 216 219 218 216 218 217 217 226 229 221 218 221 224 226 221 216 225 226 220 233 246 247 244 238 234
174 175 180 184 188 191 194 199 201 204 213 222 229 229 229 234 235 232 234 235 232 229 228 225 220 220 223 220 217 219 222 223 224 225 225 224 225 223 220 222 221 219 220 221 220 222 226 223 220 221 220 220 220 216 222 228 221 222 237 247 250 245 237
175 178 182 182 182 182 183 190 192 197 212 219 222 228 232 236 236 235 236 237 235 232 229 226 224 223 223 222 221 222 224 225 225 227 225 223 227 227 224 224 224 224 223 224 228 226 223 222 221 224 222 217 223 224 224 232 231 225 231 242 250 252 248
175 184 193 195 193 193 196 200 197 194 204 211 214 225 234 236 236 238 240 242 241 238 233 228 226 226 224 223 224 224 225 225 226 228 225 219 221 224 224 224 224 228 229 227 230 229 223 218 215 225 227 219 225 229 226 229 228 223 230 238 245 247 238
173 183 194 199 198 201 210 211 207 205 211 214 212 220 230 231 232 236 239 241 241 238 237 235 231 230 228 227 228 229 228 228 227 228 224 218 218 218 221 224 223 228 231 229 229 229 226 220 214 224 231 225 227 231 228 227 224 221 230 238 245 248 243
174 181 190 199 202 204 209 212 216 220 225 227 221 218 220 223 228 234 236 239 241 240 241 240 237 235 234 232 231 229 228 227 227 228 225 220 219 217 219 224 225 228 231 232 230 227 226 224 220 226 232 227 226 229 228 228 227 224 224 231 241 243 242
172 176 182 194 203 205 205 210 217 220 221 224 224 223 225 229 234 236 237 241 245 244 242 241 237 235 234 233 233 231 227 224 223 226 227 224 221 218 217 221 224 229 231 233 232 227 226 227 226 228 231 228 225 226 229 230 230 230 227 226 235 240 237
172 176 177 183 192 197 200 208 216 218 220 224 228 232 235 237 237 237 238 240 242 243 243 241 237 233 230 229 231 234 234 231 227 226 226 226 223 220 219 219 221 224 229 230 229 226 225 227 229 230 232 233 230 228 232 235 233 233 232 228 230 237 237
149 156 160 165 170 180 195 211 221 225 227 229 231 232 233 234 234 234 236 237 239 244 246 242 238 236 232 229 229 232 233 234 233 230 228 227 226 224 224 223 222 223 224 226 226 225 225 227 231 233 234 235 234 230 232 237 237 237 238 235 233 236 240
137 139 139 149 163 176 194 210 218 220 221 224 226 227 229 233 235 235 238 238 239 242 243 240 236 235 234 233 232 234 236 238 237 233 232 232 232 231 229 227 228 228 229 230 229 227 226 226 228 230 231 230 229 227 227 231 234 234 234 234 233 236 241
149 144 142 158 178 186 191 202 211 213 214 217 220 223 226 230 231 230 231 234 233 234 237 238 236 235 236 236 235 237 240 241 237 234 233 233 234 234 231 229 229 229 230 231 230 229 228 226 225 225 227 228 227 227 227 229 232 233 232 230 229 232 236
141 134 138 165 184 181 172 185 200 203 207 210 214 223 227 227 226 224 224 224 223 224 229 233 234 236 239 240 239 240 240 238 236 235 235 234 233 233 231 231 230 230 229 228 228 229 231 231 230 228 227 228 228 226 226 229 233 237 238 235 233 235 237
129 125 134 153 157 148 142 147 152 152 169 182 192 211 224 226 222 220 223 225 226 227 230 232 233 236 238 237 236 237 236 234 234 235 235 236 235 234 233 233 231 229 228 226 226 228 230 231 232 230 226 226 228 226 225 231 234 237 240 238 236 239 241
131 132 137 140 136 129 126 126 124 127 147 178 197 207 214 219 217 213 215 221 223 224 226 227 228 228 228 227 227 230 231 231 232 234 235 238 238 237 236 234 231 228 226 226 226 228 228 227 228 230 227 223 226 224 225 234 237 236 238 238 237 239 241
131 128 127 130 129 121 117 120 125 130 140 154 169 182 189 198 206 207 206 207 208 211 214 215 215 215 216 215 216 220 222 222 225 228 233 236 237 236 235 232 229 227 225 225 226 228 229 228 229 235 233 226 225 222 226 238 240 236 236 238 239 240 240
128 123 123 129 128 120 113 119 132 139 141 143 144 152 168 177 182 189 191 192 196 202 207 210 209 211 215 216 216 221 224 223 223 228 235 238 235 231 228 226 225 223 220 220 221 224 228 230 231 235 233 229 227 223 229 240 244 241 240 242 243 245 244
118 115 119 127 128 122 114 115 129 140 128 122 131 143 158 172 179 181 177 177 180 184 190 199 201 201 204 209 213 218 221 219 216 223 232 233 226 220 219 218 217 215 215 216 217 221 225 228 231 233 231 228 227 225 232 242 247 246 247 248 248 249 248
111 108 111 122 125 119 117 117 119 120 103 97 100 107 118 142 167 169 162 158 160 161 162 165 168 171 174 176 174 175 185 190 190 201 216 217 215 216 216 216 214 212 214 215 216 223 227 226 228 229 225 220 216 219 231 241 248 249 249 251 250 249 248
113 113 115 125 126 119 121 125 118 105 99 99 97 94 90 90 108 130 130 128 134 140 140 138 137 137 141 141 136 135 140 145 150 165 182 192 202 206 205 206 206 203 205 205 203 208 213 218 223 222 216 213 209 215 228 237 243 248 252 254 253 251 250
107 114 117 120 123 123 128 134 133 127 121 115 108 105 103 95 94 104 106 104 107 113 118 121 117 118 126 126 122 124 126 127 134 144 153 166 182 189 187 190 192 192 196 198 195 194 192 196 212 208 203 210 216 223 234 241 244 247 250 254 256 255 254
106 108 115 117 120 125 128 128 128 124 121 117 112 112 113 104 93 94 99 99 94 91 95 100 104 109 111 102 96 99 104 115 131 132 129 138 151 156 147 146 160 178 186 187 190 190 182 185 201 203 204 215 224 232 240 246 250 253 253 255 257 257 254
121 115 123 129 125 122 120 122 125 125 122 117 110 106 102 93 83 84 95 104 101 91 84 85 91 93 89 87 88 83 80 87 99 100 99 104 103 95 91 94 102 133 160 165 167 165 171 189 205 203 199 204 211 231 244 248 254 258 259 258 257 255 251
143 133 136 139 132 125 123 126 130 127 119 112 110 106 94 75 68 73 84 101 102 96 92 89 89 87 83 87 94 88 87 94 89 81 82 85 85 89 98 100 93 107 142 154 154 149 164 192 204 189 180 190 194 226 243 248 253 253 252 252 254 256 258
146 141 144 147 143 135 131 130 129 122 116 115 117 110 92 65 62 74 86 97 97 96 98 96 94 95 97 103 97 76 86 101 89 68 67 75 78 98 115 119 118 127 144 151 151 150 155 168 175 167 168 186 208 241 249 253 260 258 254 256 258 265 273
148 146 145 150 150 147 148 153 150 142 137 136 127 108 80 40 41 61 79 92 93 93 94 91 89 92 96 103 106 90 97 112 120 172 258 315 319 335 76 120 130 134 145 150 154 162 167 169 170 165 159 168 204 242 257 264 271 274 275 275 273 276 282
158 151 144 148 154 156 163 175 178 177 181 181 163 120 48 12 23 42 64 80 86 87 87 87 89 93 95 96 96 95 99 118 142 175 194 229 264 286 304 295 277 209 184 172 172 178 178 181 188 184 179 195 219 239 251 259 271 279 280 278 279 282 286
165 163 163 168 172 165 162 170 181 192 206 211 227 327 15 22 27 36 51 66 73 76 78 80 81 86 93 97 93 93 94 90 90 145 151 200 245 267 277 278 276 263 235 204 203 206 199 199 202 194 201 220 235 245 251 255 262 270 276 281 284 285 288
181 183 185 187 186 175 166 171 181 190 194 171 135 64 39 36 36 36 43 53 55 54 57 60 58 50 44 45 48 52 56 35 327 306 307 273 234 233 253 255 256 252 233 211 205 207 207 210 212 212 222 234 243 249 254 257 254 256 264 274 280 283 287
196 195 192 191 189 184 181 185 188 175 142 103 79 54 34 44 56 55 60 65 50 25 21 30 41 41 36 36 36 31 19 357 333 306 285 271 251 236 238 238 231 232 235 231 223 214 210 212 219 226 230 236 243 245 241 243 253 258 263 269 272 276 279
205 204 203 200 195 188 186 190 193 182 120 33 24 0 358 44 56 48 49 45 15 359 357 0 9 23 48 72 64 1 19 21 331 291 268 266 262 253 247 241 236 238 243 244 240 236 234 230 231 235 232 232 241 241 228 232 253 264 270 271 271 273 275
212 210 211 209 204 201 201 202 201 199 190 18 348 327 342 23 37 36 28 353 343 342 339 344 357 3 14 64 325 305 320 317 297 289 273 249 250 255 257 253 245 245 249 251 246 243 243 243 244 243 238 239 246 247 241 248 261 270 273 274 276 278 279
221 214 213 213 212 212 214 213 213 217 225 270 297 302 332 2 350 338 325 323 331 335 333 339 0 19 14 341 307 310 314 299 297 301 294 271 257 249 251 255 252 251 253 256 255 253 249 248 249 247 244 246 253 255 253 257 264 268 270 273 277 280 281
220 212 213 216 217 217 218 219 228 237 237 235 248 270 278 273 291 304 311 318 324 328 332 340 357 35 43 324 318 329 341 330 316 314 303 289 280 260 243 246 262 270 266 263 264 266 266 264 262 258 254 252 256 260 261 261 264 267 270 272 273 274 276